Weather History for KSLN - July, 2013

Change the Weather History Date:

Friday, July 5, 2013

  Actual Average Record
Temperature  
Mean Temperature 83 °F 81 °F  
Max Temperature 95 °F 93 °F 112 °F (1951)
Min Temperature 71 °F 69 °F 48 °F (1924)
Degree Days  
Heating Degree Days 0 0  
Month to date heating degree days 0 0  
Since 1 June heating degree days 7 7  
Since 1 July heating degree days 0 0  
Cooling Degree Days 18 16  
Month to date cooling degree days 55 76  
Year to date cooling degree days 583 529  
Since 1 June cooling degree days 442 401  
Growing Degree Days 33 (Base 50)    
Moisture  
Dew Point 56 °F    
Average Humidity 46    
Maximum Humidity 66    
Minimum Humidity 26    
Precipitation  
Precipitation 0.00 in 0.15 in 2.55 in (1971)
Month to date precipitation 0.01 0.74  
Year to date precipitation 15.49 16.84  
Sea Level Pressure  
Sea Level Pressure 29.84 in    
Wind  
Wind Speed 18 mph (SSE)    
Max Wind Speed 30 mph    
Max Gust Speed 39 mph    
Visibility 10 miles    
Events      
T = Trace of Precipitation, MM = Missing Value Source: NWS Daily Summary

Daily Weather History Graph

Daily Weather History Graph

Search for Another Location

Airport or City:

Trip Planner

Search our weather history database for the weather conditions in past years. The results will help you decide how hot, cold, wet, or windy it might be!

Date:

Astronomy

Jul. 05, 2013 Rise Set
Actual Time 6:11 AM CDT 8:58 PM CDT
Civil Twilight 5:39 AM CDT 9:30 PM CDT
Nautical Twilight 5:00 AM CDT 10:10 PM CDT
Astronomical Twilight 4:14 AM CDT 10:55 PM CDT
Moon 4:11 AM CDT (7/5) 6:55 PM CDT (7/5)
Length of Visible Light 15h 50m
Length of Day
14h 47m
Waning Crescent, 6% of the Moon is Illuminated
Jul 5
Waning Crescent
Jul 8
New
Jul 15
First Quarter
Jul 22
Full
Jul 29
Last Quarter

Hourly Weather History & Observations

Time (CDT) Temp. Heat Index Dew Point Humidity Pressure Visibility Wind Dir Wind Speed Gust Speed Precip Events Conditions
12:53 AM 75.9 °F - 53.1 °F 45% 29.88 in 10.0 mi SSE 16.1 mph 23.0 mph N/A   Clear
1:53 AM 75.9 °F - 55.0 °F 48% 29.87 in 10.0 mi South 11.5 mph - N/A   Scattered Clouds
2:53 AM 75.0 °F - 57.0 °F 53% 29.88 in 10.0 mi South 12.7 mph 20.7 mph N/A   Clear
3:53 AM 73.9 °F - 57.9 °F 57% 29.87 in 10.0 mi South 11.5 mph - N/A   Partly Cloudy
4:53 AM 73.0 °F - 57.9 °F 59% 29.88 in 10.0 mi South 9.2 mph - N/A   Clear
5:53 AM 71.1 °F - 57.9 °F 63% 29.88 in 10.0 mi SSE 10.4 mph - N/A   Mostly Cloudy
6:53 AM 71.1 °F - 59.0 °F 66% 29.88 in 8.0 mi SSE 13.8 mph - N/A   Mostly Cloudy
7:53 AM 73.9 °F - 59.0 °F 59% 29.88 in 9.0 mi South 15.0 mph - N/A   Partly Cloudy
8:53 AM 77.0 °F - 57.9 °F 52% 29.89 in 9.0 mi South 19.6 mph 26.5 mph N/A   Partly Cloudy
9:53 AM 82.0 °F 81.7 °F 57.0 °F 42% 29.88 in 10.0 mi South 20.7 mph 35.7 mph N/A   Clear
10:53 AM 86.0 °F 84.9 °F 57.0 °F 37% 29.87 in 10.0 mi South 21.9 mph 33.4 mph N/A   Clear
11:53 AM 89.1 °F 87.7 °F 57.0 °F 34% 29.85 in 10.0 mi South 23.0 mph 35.7 mph N/A   Clear
12:53 PM 91.9 °F 90.6 °F 57.0 °F 31% 29.84 in 10.0 mi South 25.3 mph 34.5 mph N/A   Clear
1:53 PM 93.0 °F 91.1 °F 55.0 °F 28% 29.83 in 10.0 mi South 19.6 mph 33.4 mph N/A   Clear
2:53 PM 93.9 °F 92.0 °F 55.0 °F 27% 29.82 in 10.0 mi South 24.2 mph 31.1 mph N/A   Clear
3:53 PM 95.0 °F 93.4 °F 55.9 °F 27% 29.81 in 10.0 mi South 24.2 mph 31.1 mph N/A   Clear
4:53 PM 93.9 °F 92.2 °F 55.9 °F 28% 29.79 in 10.0 mi South 24.2 mph 32.2 mph N/A   Clear
5:53 PM 93.0 °F 91.4 °F 55.9 °F 29% 29.78 in 10.0 mi South 23.0 mph 32.2 mph N/A   Clear
6:53 PM 90.0 °F 87.9 °F 55.0 °F 30% 29.78 in 10.0 mi SSE 19.6 mph 26.5 mph N/A   Clear
7:53 PM 89.1 °F 87.1 °F 55.0 °F 31% 29.78 in 10.0 mi SSE 17.3 mph - N/A   Clear
8:53 PM 84.9 °F 83.3 °F 54.0 °F 34% 29.79 in 10.0 mi SSE 11.5 mph - N/A   Clear
9:53 PM 82.0 °F 81.4 °F 55.0 °F 39% 29.81 in 10.0 mi SSE 16.1 mph - N/A   Clear
10:53 PM 82.0 °F 81.4 °F 55.0 °F 39% 29.82 in 10.0 mi SSE 16.1 mph - N/A   Clear
11:53 PM 79.0 °F - 55.9 °F 45% 29.81 in 10.0 mi SSE 17.3 mph - N/A   Clear